Location: Babu�nica
(43.0680°N, 22.4115°E)
Time: 07:01:02
(UTC+00:00)

Daily predictions for brighter satellites

Satellite Brightness Start Highest point End
(mag) Time Altitude Azimuth Time Altitude Azimuth Time Altitude Azimuth
H-2A R/B 3.0 15:38:02 10° SSE 15:41:44 46° ENE 15:45:25 10° N
Cosmos 2233 Rocket 4.0 15:35:28 10° N 15:41:49 72° E 15:48:04 10° SSE
Cosmos 773 Rocket 4.0 15:37:32 10° S 15:42:37 65° ESE 15:47:46 10° NNE
Cosmos 1867 4.0 15:37:59 10° SW 15:43:24 65° NW 15:48:52 10° NNE
Genesis I 3.6 15:41:45 10° SW 15:45:45 69° NW 15:49:45 10° NNE
BREEZE-M DEB (TANK) 4.1 15:39:10 10° SW 15:46:39 35° SSE 15:49:56 10° E
Cosmos 1743 Rocket 3.7 15:42:55 10° N 15:47:17 82° W 15:51:39 10° S
Cosmos 1805 Rocket 4.0 15:43:18 10° N 15:47:24 38° ENE 15:51:29 10° SE
Meteor 1-27 4.3 15:46:58 10° S 15:52:37 86° E 15:58:23 10° N
Meteor 2-2 Rocket 4.3 15:48:30 10° S 15:54:18 66° E 16:00:02 10° NNE
Cosmos 1697 Rocket 3.7 15:50:36 10° SSE 15:55:14 27° ESE 15:59:53 10° NE
COBE Rocket 4.0 15:50:58 10° NNE 15:55:40 52° E 16:00:13 10° S
ATLAS 5 CENTAUR R/B 2.5 15:52:42 10° NNW 15:58:27 59° NE 16:04:58 10° SE
AQUARIUS 4.1 15:54:46 10° SSE 15:59:15 82° ENE 16:03:46 10° N
Okean O Rocket 4.0 15:56:43 10° SSW 16:00:29 28° W 16:04:16 10° NW
CZ-3 Stage 3 4.3 15:53:49 10° W 16:00:36 18° SW 16:03:48 10° S
Cosmos 1538 Rocket 4.0 15:57:33 10° SSW 16:02:46 74° ESE 16:08:05 10° NNE
Cosmos 1464 Rocket 4.3 15:59:01 10° N 16:04:51 42° ENE 16:10:37 10° SE
Meteor 2-3 Rocket 4.3 15:59:43 10° NNW 16:05:28 65° W 16:11:09 10° S
Meteor 2-20 4.4 15:59:38 10° S 16:05:42 73° E 16:11:51 10° NNE
NOAA 12 4.1 16:01:17 10° SSE 16:06:33 64° ENE 16:11:50 10° N
Cosmos 1862 4.2 16:03:25 10° NNE 16:06:50 27° ENE 16:10:14 10° SE
GEOS 3 Rocket 3.8 16:05:21 10° NE 16:10:35 79° NW 16:15:52 10° SW
USA 215 4.2 16:08:45 14° ENE 16:13:21 31° NNE 16:18:55 10° NW
Cosmos 1633 Rocket 3.6 16:12:49 10° N 16:16:53 35° ENE 16:20:55 10° SE
NOSS 2-3 (E) 4.4 16:15:08 10° S 16:18:59 33° ESE 16:21:25 20° ENE
Cosmos 2084 4.1 16:16:01 10° NW 16:20:13 57° WSW 16:24:20 10° SSE
USA 229 DEB 3.7 16:14:33 10° SW 16:21:07 84° NW 16:28:01 10° NE
USA 229 3.7 16:14:40 10° SW 16:21:13 84° NW 16:28:06 10° NE
Cosmos 1607 3.9 16:16:38 10° NW 16:22:52 90° NE 16:29:10 10° SSE
Cosmos 1656 3.6 16:20:19 10° SSW 16:25:52 83° ESE 16:31:24 10° NNE
BREEZE-M DEB (TANK) 3.6 16:17:37 10° W 16:26:09 43° NNW 16:28:10 21° NE
NOSS 3-1 (A) 3.3 16:21:01 10° SSW 16:26:23 65° ESE 16:31:30 15° NE
COSMO-SKYMED 1 2.6 16:22:13 10° NNE 16:26:30 55° E 16:30:45 10° S
NOSS 3-1 (C) 3.3 16:21:16 10° SW 16:26:45 82° NW 16:32:50 11° NE
Cosmos 1633 2.5 16:24:34 10° N 16:28:11 57° E 16:31:46 10° SSE
Cosmos 1666 Rocket 3.5 16:24:04 10° N 16:28:23 56° E 16:32:39 10° SSE
NOSS 2-3 (D) 4.2 16:24:26 10° S 16:28:24 38° ESE 16:30:26 25° ENE
Sich 1 2.9 16:25:16 10° N 16:29:38 80° E 16:34:00 10° S
Envisat 2.9 16:25:14 10° SSE 16:30:18 84° ENE 16:35:25 10° NNW
Cosmos 1328 Rocket 4.0 16:27:18 10° SSE 16:31:23 37° E 16:34:20 17° NNE
CSL-04 Debris 4.3 16:28:19 10° SE 16:33:36 50° ENE 16:38:53 10° N
Cosmos 1151 Rocket 3.5 16:30:23 10° SSE 16:34:22 36° E 16:36:26 23° NE
TELKOM 3 2.8 16:33:18 10° WNW 16:35:15 69° W 16:35:15 69° W
Cosmos 1356 Rocket 3.8 16:34:12 10° SSW 16:38:17 64° W 16:42:30 10° N
SeaSat 1 2.6 16:34:27 10° SSE 16:39:22 76° WSW 16:44:20 10° NNW
PSLV R/B 3.1 16:39:37 10° W 16:42:04 48° S 16:42:04 48° S
Cosmos 2219 4.5 16:39:14 10° NW 16:44:29 42° WSW 16:49:43 10° S
Cosmos 1371 Rocket 4.4 16:43:00 10° N 16:47:51 37° ENE 16:48:42 35° E
Lacrosse 4 Rocket 1.2 16:44:00 10° SSW 16:48:05 89° WNW 16:49:57 31° NNE
YAOGAN 6 2.5 16:46:04 10° S 16:49:34 83° WSW 16:53:04 10° NNW
CZ-4 R/B 4.4 16:45:36 10° SSE 16:49:44 89° W 16:53:54 10° NNW
CSL-04 Rocket 3.5 16:46:00 10° SSE 16:51:20 69° ENE 16:56:37 10° N
YAOGAN 1 2.4 16:48:27 10° SSE 16:52:44 70° ENE 16:57:04 10° N
Cosmos 2346 Rocket 4.4 16:47:28 10° S 16:53:36 60° E 16:59:41 10° NNE
Cosmos 724 4.3 16:52:25 10° NNW 16:58:10 54° NE 17:00:09 37° ESE
CZ-4 R/B 1.5 16:54:44 10° S 16:58:54 76° WSW 17:03:02 10° NNW
Cosmos 1980 Rocket 2.4 16:53:40 10° S 16:59:04 49° ESE 17:00:32 40° ENE
Cosmos 1470 Rocket 3.6 16:54:54 10° N 16:59:19 54° E 17:00:03 48° ESE
Cosmos 2112 Rocket 3.9 16:55:25 10° S 17:00:33 69° ESE 17:03:02 31° NNE
Meteor 2-11 Rocket 4.3 16:54:39 10° N 17:00:48 80° E 17:06:56 10° S
Cosmos 2034 Rocket 3.9 16:55:22 10° N 17:01:45 84° E 17:08:08 10° S
USA 116 4.1 16:57:43 13° NNE 17:01:56 85° ESE 17:07:01 10° SSW
ERBS 3.0 16:59:24 10° WSW 17:02:37 45° NW 17:02:51 44° NNW
Cosmos 2227 Rocket 3.1 16:58:42 10° NW 17:04:08 48° WSW 17:09:31 10° S
Cosmos 2297 Rocket 3.3 16:58:52 10° NW 17:04:12 44° WSW 17:09:32 10° S
NOSS 2-3 (C) 3.6 17:01:54 10° SW 17:06:13 88° SE 17:07:31 48° NE
Cosmos 1680 Rocket 3.4 17:02:36 10° SSW 17:07:49 88° WNW 17:10:57 25° NNE
Ariane Rocket 3.5 17:14:23 43° NNE 17:14:23 43° NNE 17:18:11 10° N
Cosmos 158 Rocket 3.9 17:09:57 10° S 17:15:11 59° ESE 17:15:12 59° ESE
Cosmos 2369 4.2 17:14:40 10° SW 17:20:14 60° WNW 17:24:08 20° NNE
Tsikada Rocket 3.9 17:16:18 10° S 17:22:38 86° E 17:29:05 10° N
Cosmos 1634 Rocket 4.1 17:17:01 10° N 17:22:22 51° NE 17:22:22 51° NE
Cosmos 2263 Rocket 3.6 17:22:33 10° N 17:25:09 24° NNE 17:25:09 24° NNE
Cosmos 2360 4.2 17:27:10 10° SSW 17:32:51 77° WNW 17:34:33 47° NNE
Cosmos 1697 Rocket 3.6 17:33:30 10° SW 17:38:55 46° WNW 17:42:03 24° N
Cosmos 1624 Rocket 4.1 17:34:23 10° NNW 17:39:08 71° NNW 17:39:08 71° NNW
Cosmos 2056 Rocket 3.8 17:34:48 10° NNW 17:38:46 54° NNW 17:38:46 54° NNW
Cosmos 2278 4.2 17:34:25 10° SW 17:39:59 56° WNW 17:42:21 33° N
ATLAS 5 CENTAUR R/B 4.3 17:37:51 10° WNW 17:42:59 29° WSW 17:48:37 10° S
USA 215 3.3 17:56:07 64° NNE 17:56:07 64° NNE 18:02:08 10° NW
Cosmos 1980 Rocket 4.1 18:38:31 10° WSW 18:42:22 26° WNW 18:42:22 26° WNW
